SHENZHOU-11 MODULE (41868 NORAD) Tracking and Keplerian Element Data

This shows tracking and keplerian element data for the satellite.

Feedback or suggestion? Click here.




ElementValue
Catalog41868
NameSHENZHOU-11 MODULE
Epoch Orbit11463
Epoch Day322.77532667
Epoch Year2018
RAAN93.1501
Inclination42.7909
Eccentricity0.0003141
Argument of Perigee335.7993
Mean Anonmoly170.0179
Mean Motion15.75149701
Decay Rate8.782E-05
L11 41868U 16061G 18322.77532667 .00008782 00000-0 59869-4 0 9996
L22 41868 42.7909 93.1501 0003141 335.7993 170.0179 15.75149701114637

Live tracking and technical data element details for SHENZHOU-11 MODULE (NORAD 41868). SHENZHOU-11 MODULE can be tracked NOW for your location showing map with azimuth and elevation plus other details from your city location.

Track the satellite on the map from your city or location and see movement details for azimuth, elevation, latitude, longitude, range, height, and movement on the map or in text.







IsCatalogInMostPopularTable: catalog: 41868, numindb: 131
Update: records affected: 1



GetName: 41868 SHENZHOU-11 MODULE

Hit Count: updated at: Mon, 19 Nov 2018 10:58:33 GMT